Zurück zum Katalog

COSMOS 1275 DEB

AktivPO
NORAD 42182·DEBRIS·🇷🇺 Russia

Gestartet Jun 4, 1981 von Plesetsk Cosmodrome

Loading…

Nächste Überflüge (nächste 24 Stunden)

TLE

AlterndSource: Space-Track

Epoche: Sep 4, 2026, 18:30 UTC

1 42182U 81053SW  26247.77085826  .00000218  00000-0  24407-3 0  9999
2 42182  82.9495 260.1607 0128843  27.2946  96.9708 13.63203489622080

Verfolge COSMOS 1275 DEB in Echtzeit mit AllMySat

Download on the App Store